{"data":{"norad_id":53197,"epoch":"2026-09-19T21:29:58.206912Z","epoch_age_seconds":124421,"freshness":"FRESH","line1":"1 53197U 22084J   26262.89581258 -.00001921  00000+0 -57194-4 0  9999","line2":"2 53197  97.2831 317.6839 0001067 109.3057 250.8302 15.33444590228597","mean_motion":15.3344459,"eccentricity":0.0001067,"inclination_deg":97.2831,"raan_deg":317.6839,"arg_perigee_deg":109.3057,"mean_anomaly_deg":250.8302,"bstar":-5.7194e-5,"rev_number":22859,"period_min":93.906229764716,"perigee_km":464.81417354517,"apogee_km":466.27461515472,"semimajor_km":6843.6813943499,"source":"CELESTRAK","updated_at":"2026-09-20T09:00:40.190124Z"}}